Simultaneous Nadir Overpasses (SNOs) Predictions

Prediction of SNOs between FY3D and AQUA Satellite Orbit:

Table of predicted SNOs for the next 14.0 days since TLE Epoch: 2/27/2021
Index Date (FY3D) Time (FY3D) Lat,Lon (FY3D) SZA (FY3D ) Date (AQUA) Time (AQUA) Lat,Lon (AQUA) SZA (AQUA ) Distance(km) Time Diff (sec)
1 02/28/2021 04:20:32 -46.24, 147.81 45.96 02/28/2021 04:20:36 -46.29, 147.39 45.80 33.34 4
2 02/28/2021 05:11:17 46.00, -44.95 134.24 02/28/2021 05:10:04 46.04, -45.06 134.41 9.06 73
3 03/02/2021 20:36:44 -46.72, -96.06 47.36 03/02/2021 20:36:56 -46.81, -96.53 47.23 37.33 12
4 03/02/2021 21:27:37 46.02, 70.99 133.26 03/02/2021 21:26:33 46.03, 70.82 133.46 12.90 64
5 03/05/2021 12:28:44 -46.11,-172.63 127.18 03/05/2021 12:29:42 -46.19,-172.14 126.97 38.49 58
6 03/05/2021 13:43:56 46.04,-173.07 132.25 03/05/2021 13:43:00 46.07,-173.28 132.44 16.26 56
7 03/08/2021 04:45:04 -46.09, -56.69 128.19 03/08/2021 04:46:10 -46.15, -56.24 128.00 34.95 66
8 03/08/2021 06:00:17 46.00, -57.16 131.29 03/08/2021 05:59:29 46.05, -57.40 131.46 19.78 48
9 03/10/2021 21:02:11 -48.77, 58.14 126.75 03/10/2021 21:03:24 -48.84, 58.60 126.56 34.44 73



Historial Predications of SNOs between FY3D and AQUA
